Погода в Нижнем Новгороде

Россия / Нижегородская область     56˚19′36″N   44˚00′21″E
темп.,
°C
ветер,
м/с
пор.,
м/с
влажн.,
%
обл.,
%
осадки,
мм/ч
давл.,
гПа
погр.,
м
18 января, пн
пн1800:00−26˚з11996 0.0 101920
03:00−26˚с019938 0.0 101919
06:00−26˚ююз119884 0.0 102020
09:00−25˚ююз229677 0.0 102122
12:00−21˚зюз019577 0.0 1021108
15:00−22˚ююз119688 0.0 102020
18:00−24˚ююв1196100 0.0 102020
21:00−24˚ююв1196100 0.0 102020
19 января, вт
вт1900:00−23˚в0095100 0.0 101920
03:00−22˚всв1195100 0.0 101920
06:00−23˚в1195100 0.0 101820
09:00−22˚всв1195100 0.0 101820
12:00−19˚св1192100 0.0 1017171
15:00−19˚сз0194100 0.0 1016148
18:00−19˚с1196100 0.0 101623
21:00−20˚сз1195100 0.0 101620
20 января, ср
ср2000:00−20˚зсз1196100 0.0 101620
03:00−19˚зсз1298100 0.1 101649
06:00−18˚зсз2398100 0.2 101686
09:00−18˚зсз259799 0.3 1016141
12:00−15˚зсз349589 0.1 1017256
15:00−14˚з369693 0.1 1017239
18:00−15˚з389697 0.1 1018239
21:00−15˚з389691 0.1 1019213
21 января, чт
чт2100:00−17˚з379791 0.0 1019158
03:00−18˚з379789 0.1 1020137
06:00−19˚зюз359863 0.0 1020104
09:00−18˚юз389673 0.0 1021176
12:00−14˚юз4993100 0.0 1019282
15:00−11˚ююз51385100 0.0 1015438
18:00−10˚ююз71693100 0.5 1012668
21:00−9˚юз71593100 1.9 1009754
22 января, пт
пт2200:00−7˚зюз81693100 1.1 1006716
03:00−4˚зюз81694100 2.7 1004708
06:00з71596100 1.7 1002825
09:00+1˚з71496100 1.8 1004745
12:00+1˚з512100100 0.4 1006498
15:00ссз3699100 0.9 1008260
18:00−3˚св2597100 0.7 1011210
21:00−8˚всв259699 1.1 1013148